STARLINK-2009 (47633 NORAD) Tracking and Keplerian Element Data

This shows tracking and keplerian element data for the satellite.

Feedback or suggestion? Click here.




ElementValue
Catalog47633
NameSTARLINK-2009
Epoch Orbit175
Epoch Day101.91668981
Epoch Year2021
RAAN199.6507
Inclination53.0567
Eccentricity0.0001369
Argument of Perigee67.632
Mean Anonmoly210.3995
Mean Motion15.06432286
Decay Rate-0.00036728
L11 47633U 21012P 21101.91668981 -.00036728 00000-0 -24574-2 0 9994
L22 47633 53.0567 199.6507 0001369 67.6320 210.3995 15.06432286 1750

Live tracking and technical data element details for STARLINK-2009 (NORAD 47633). STARLINK-2009 can be tracked NOW for your location showing map with azimuth and elevation plus other details from your city location.

Track the satellite on the map from your city or location and see movement details for azimuth, elevation, latitude, longitude, range, height, and movement on the map or in text.







IsCatalogInMostPopularTable: catalog: 47633, numindb: 14
Update: records affected: 1



GetName: 47633 STARLINK-2009

Hit Count: updated at: Tue, 13 Apr 2021 04:18:16 GMT